Location: Niverville
(49.6028°N, 97.0419°W)
Time: 03:22:52
(UTC-05:00)

Amateur Radio Satellites - All Passes

Search period start: 27 May 2016 02:52
Search period end: 28 May 2016 02:52
Location: Niverville, 49.6028°N, 97.0419°W

Satellite Date Start Highest point End Downlink Frequencies (MHz)
Time Altitude Azimuth
ISS 27 May 02:53:26 02:56:42 71° 12° (NNE) 02:59:58 145.825
BEESAT 27 May 03:07:05 03:11:47 61° 259° (W) 03:16:31 436.000
JAS-2 27 May 03:09:26 03:17:03 67° 291° (WNW) 03:23:55 435.910
Cosmos 2491 27 May 03:15:12 03:20:40 18° 73° (ENE) 03:26:06 435.465 / 435.565
STARS 27 May 03:17:59 03:20:50 17° 58° (ENE) 03:23:41 437.465
Oscar 19 27 May 03:19:22 03:24:35 86° 286° (WNW) 03:29:44 437.125/150
Gurwin Techsat 1B 27 May 03:35:50 03:41:09 62° 102° (ESE) 03:46:25 435.225
Cosmos 2504 27 May 03:42:09 03:48:25 23° 57° (ENE) 03:54:54 435.465 / 435.565
SO-50 27 May 03:42:21 03:46:37 29° 327° (NNW) 03:50:52 436.795
ITAMSAT 1 27 May 03:59:17 04:04:14 41° 98° (E) 04:09:10 435.822/435.867
YUBILEINY 27 May 04:07:48 04:16:37 79° 79° (E) 04:25:25 435.215
CUBESAT XI-V 27 May 04:14:11 04:16:05 12° 54° (NE) 04:18:00 437.345
KKS-1 27 May 04:14:35 04:19:04 88° 263° (W) 04:23:34 437.445
SWISSCUBE 27 May 04:17:44 04:20:19 14° 272° (W) 04:22:55 437.505
ITUPSAT 1 27 May 04:23:31 04:26:05 14° 272° (W) 04:28:39 437.325
MOZHAYETS 4 27 May 04:24:39 04:29:13 84° 76° (ENE) 04:33:50
RS-15 27 May 04:27:23 04:38:42 46° 249° (WSW) 04:50:02 29.354- 29.394
ISS 27 May 04:30:00 04:33:01 35° 212° (SSW) 04:36:02 145.825
AO-7 27 May 04:35:37 04:43:16 37° 96° (E) 04:50:52 29.400- 29.500
STARS 27 May 04:52:20 04:56:43 70° 257° (WSW) 05:01:08 437.465
JAS-2 27 May 04:55:36 05:00:39 20° 314° (NW) 05:05:29 435.910
Oscar 19 27 May 05:00:04 05:03:11 16° 306° (NW) 05:06:16 437.125/150
Cosmos 2491 27 May 05:07:09 05:15:57 75° 95° (E) 05:24:46 435.465 / 435.565
Gurwin Techsat 1B 27 May 05:16:29 05:20:43 24° 301° (WNW) 05:24:55 435.225
SO-50 27 May 05:25:59 05:28:39 14° 351° (N) 05:31:18 436.795
HORYU 2 27 May 05:28:33 05:31:58 22° 93° (E) 05:35:24 437.375
Cosmos 2504 27 May 05:34:46 05:43:07 82° 80° (E) 05:51:56 435.465 / 435.565
ITAMSAT 1 27 May 05:38:59 05:43:37 33° 297° (WNW) 05:48:16 435.822/435.867
CUBESAT XI-V 27 May 05:48:00 05:52:39 73° 74° (ENE) 05:57:23 437.345
AO-85 27 May 05:49:53 05:52:04 12° 107° (ESE) 05:54:14 145.980
KKS-1 27 May 05:54:52 05:56:19 11° 273° (W) 05:57:46 437.445
MOZHAYETS 4 27 May 06:04:55 06:07:01 13° 273° (W) 06:09:09
YUBILEINY 27 May 06:05:36 06:12:30 27° 281° (W) 06:19:26 435.215
NOAA 18 27 May 06:17:27 06:19:59 13° 86° (E) 06:22:31 137.9125
NOAA 15 27 May 06:21:07 06:24:29 17° 88° (E) 06:27:50 137.62
Cubesat XI-IV 27 May 06:24:24 06:26:41 13° 85° (E) 06:28:58 437.490
AO-7 27 May 06:28:16 06:36:28 63° 298° (WNW) 06:44:41 29.400- 29.500
STRAND 1 27 May 06:51:39 06:56:14 35° 64° (ENE) 07:00:52 437.568
LilacSat-2 27 May 06:56:19 06:58:56 18° 91° (E) 07:01:32 437.200
HORYU 2 27 May 07:04:31 07:08:47 48° 291° (WNW) 07:13:03 437.375
Cosmos 2491 27 May 07:06:07 07:13:43 31° 299° (WNW) 07:21:21 435.465 / 435.565
BRITE-PL 27 May 07:06:33 07:11:17 33° 93° (E) 07:15:40 437.365/2234.400
SO-50 27 May 07:08:00 07:11:02 16° 16° (NNE) 07:14:02 436.795
CUTE-I 27 May 07:09:09 07:13:51 30° 94° (E) 07:18:31 437.470
AO-85 27 May 07:26:19 07:31:43 66° 125° (SE) 07:36:58 145.980
CUBESAT XI-V 27 May 07:27:47 07:30:35 16° 272° (W) 07:33:25 437.345
Cosmos 2504 27 May 07:29:10 07:35:41 26° 280° (W) 07:42:29 435.465 / 435.565
GOMX 1 27 May 07:34:30 07:38:37 28° 92° (E) 07:42:29 467.674
PRISM 27 May 07:43:13 07:46:14 20° 61° (ENE) 07:49:16 437.425
NOAA 18 27 May 07:56:01 08:01:32 79° 105° (ESE) 08:07:02 137.9125
NOAA 15 27 May 07:59:35 08:04:55 81° 288° (WNW) 08:10:12 137.62
GONETS M04 27 May 08:01:43 08:08:36 25° 56° (ENE) 08:15:24
Cubesat XI-IV 27 May 08:02:15 08:07:39 78° 104° (ESE) 08:13:01 437.490
Cosmos 2499 27 May 08:18:27 08:24:24 20° 54° (NE) 08:30:32 435.465 / 435.565
AO-7 27 May 08:22:07 08:27:45 21° 321° (NW) 08:33:23 29.400- 29.500
AIST 1 27 May 08:23:52 08:27:52 33° 72° (ENE) 08:31:47
DOVE 4 27 May 08:25:59 08:30:13 40° 97° (E) 08:34:13 437.250
HO-68 27 May 08:27:45 08:33:13 23° 89° (E) 08:38:39 435.675
LilacSat-2 27 May 08:29:52 08:33:28 43° 289° (WNW) 08:37:05 437.200
STRAND 1 27 May 08:30:39 08:35:23 38° 263° (W) 08:40:09 437.568
BRITE-PL 27 May 08:44:57 08:49:50 39° 294° (WNW) 08:54:21 437.365/2234.400
SO-50 27 May 08:48:15 08:52:47 41° 39° (NE) 08:57:11 436.795
CUTE-I 27 May 08:48:58 08:54:05 47° 293° (WNW) 08:59:11 437.470
CINEMA 3 27 May 09:00:30 09:04:09 28° 94° (E) 09:07:44 145.822/145.860
CANX-2 27 May 09:06:58 09:10:57 36° 96° (E) 09:14:55 2200.000
AO-85 27 May 09:07:43 09:12:36 33° 325° (NW) 09:17:18 145.980
SEEDS 27 May 09:10:53 09:14:31 27° 94° (E) 09:18:08 437.485
GOMX 1 27 May 09:12:22 09:16:53 39° 293° (WNW) 09:21:04 467.674
O/OREOS (USA 219) 27 May 09:15:40 09:16:36 11° 96° (E) 09:17:32 437.305
ANTELSAT 27 May 09:16:14 09:17:53 12° 56° (NE) 09:19:31 437.575/2403.000
PRISM 27 May 09:17:09 09:21:13 52° 259° (W) 09:25:19 437.425
CUTE 1.7 + AOD 2 27 May 09:34:10 09:38:26 60° 101° (E) 09:42:40 437.475
Oscar 11 27 May 09:37:33 09:39:47 14° 88° (E) 09:41:59 145.826/435.025
NOAA 18 27 May 09:37:41 09:41:37 21° 305° (NW) 09:45:34 137.9125
AUBIESAT-1 27 May 09:37:57 09:41:11 44° 106° (ESE) 09:44:21 437.475
NOAA 15 27 May 09:40:47 09:43:55 16° 307° (NW) 09:47:01 137.62
Cubesat XI-IV 27 May 09:43:20 09:47:10 20° 304° (WNW) 09:50:58 437.490
M-CUBED/EXP-1 PRIME 27 May 09:44:12 09:47:31 67° 108° (ESE) 09:50:45 437.505
ZACube-1 27 May 09:50:27 09:53:03 16° 90° (E) 09:55:39 437.345
CUBEBUG 2 27 May 09:53:04 09:56:50 32° 96° (E) 10:00:37 437.445
COMPASS 1 27 May 09:57:34 10:01:45 57° 101° (E) 10:05:54 437.405
GONETS M04 27 May 09:58:01 10:06:47 89° 81° (E) 10:15:30
AAUSAT CUBESAT 2 27 May 10:00:35 10:04:42 49° 99° (E) 10:08:47 437.432
AIST 1 27 May 10:01:39 10:05:22 28° 271° (W) 10:09:03
DOVE 4 27 May 10:04:04 10:07:45 25° 297° (WNW) 10:11:16 437.250
UNISAT 6 27 May 10:08:51 10:12:46 34° 67° (ENE) 10:16:39 437.425
Cosmos 2499 27 May 10:10:39 10:19:09 72° 77° (ENE) 10:28:01 435.465 / 435.565
HO-68 27 May 10:14:34 10:21:47 84° 290° (WNW) 10:28:58 435.675
TIGRISAT 27 May 10:16:26 10:20:27 38° 68° (ENE) 10:24:25 435.000
NANOSAT C BR1 27 May 10:21:02 10:21:57 11° 55° (NE) 10:22:52 145.865
UWE-3 27 May 10:22:26 10:26:28 45° 99° (E) 10:30:31 435.000/436.395/437.385
FUNcube-1 27 May 10:27:54 10:31:44 34° 96° (E) 10:35:36 145.935
SO-50 27 May 10:28:54 10:33:17 39° 240° (WSW) 10:37:31 436.795
PCSat 27 May 10:32:37 10:37:40 41° 115° (ESE) 10:42:45 145.827
DELFI C3 27 May 10:34:40 10:37:59 24° 93° (E) 10:41:16 145.870
CINEMA 3 27 May 10:37:36 10:41:21 32° 293° (WNW) 10:45:02 145.822/145.860
CANX-2 27 May 10:43:04 10:46:42 27° 295° (WNW) 10:50:20 2200.000
SEEDS 27 May 10:46:25 10:50:18 36° 292° (WNW) 10:54:12 437.485
ANTELSAT 27 May 10:49:35 10:53:56 82° 73° (ENE) 10:58:14 437.575/2403.000
O/OREOS (USA 219) 27 May 10:50:38 10:55:11 80° 116° (ESE) 10:59:45 437.305
AO-85 27 May 10:51:25 10:54:36 16° 348° (NNW) 10:57:41 145.980
DUCHIFAT 1 27 May 10:57:11 11:00:22 21° 62° (ENE) 11:03:32 145.980
CUTE 1.7 + AOD 2 27 May 11:10:57 11:13:52 18° 299° (WNW) 11:16:47 437.475
Oscar 11 27 May 11:12:05 11:16:26 74° 286° (WNW) 11:20:46 145.826/435.025
AUBIESAT-1 27 May 11:13:21 11:15:26 16° 305° (NW) 11:17:29 437.475
BUGSAT 1 27 May 11:17:26 11:20:13 18° 60° (ENE) 11:23:00 437.445
M-CUBED/EXP-1 PRIME 27 May 11:20:27 11:21:39 12° 308° (NW) 11:22:51 437.505
ZACube-1 27 May 11:25:37 11:29:44 60° 287° (WNW) 11:33:53 437.345
DANDE 27 May 11:26:19 11:26:54 10° 68° (ENE) 11:27:29 436.750
CUBEBUG 2 27 May 11:29:51 11:33:25 28° 294° (WNW) 11:37:00 437.445
CUSAT 1 27 May 11:30:09 11:35:31 26° 81° (E) 11:41:36 437.405
POPSAT HIP 1 27 May 11:33:47 11:37:52 48° 70° (ENE) 11:41:58 437.405
COMPASS 1 27 May 11:34:00 11:36:56 19° 299° (WNW) 11:39:52 437.405
QB50P1 27 May 11:34:12 11:38:18 50° 70° (ENE) 11:42:25 145.935-145.965
QB50P2 27 May 11:36:19 11:40:28 55° 71° (ENE) 11:44:37 145.880/145.840
AAUSAT CUBESAT 2 27 May 11:36:46 11:39:53 20° 298° (WNW) 11:42:59 437.432
HUMSAT D 27 May 11:37:03 11:41:06 49° 99° (E) 11:45:09 437.325/437.525
POLYITAN 1 27 May 11:38:47 11:42:55 56° 72° (ENE) 11:47:05 437.675
JAS-2 27 May 11:41:12 11:47:16 27° 53° (NE) 11:53:31 435.910
UNISAT 6 27 May 11:45:44 11:49:32 29° 265° (W) 11:53:18 437.425
NANOSAT C BR1 27 May 11:52:43 11:56:56 73° 73° (ENE) 12:01:09 145.865
TIGRISAT 27 May 11:53:37 11:57:15 26° 266° (W) 12:00:52 435.000
GONETS M04 27 May 11:56:06 12:02:28 23° 284° (WNW) 12:08:48
UWE-3 27 May 11:59:32 12:02:42 21° 297° (WNW) 12:05:53 435.000/436.395/437.385
HO-68 27 May 12:03:17 12:08:35 23° 311° (NW) 12:13:53 435.675
FUNcube-1 27 May 12:04:22 12:07:54 27° 295° (WNW) 12:11:29 145.935
Cosmos 2499 27 May 12:04:31 12:11:40 31° 278° (W) 12:19:02 435.465 / 435.565
BEESAT 2 27 May 12:08:42 12:11:07 16° 113° (ESE) 12:13:33 435.950
DELFI C3 27 May 12:09:14 12:12:58 36° 291° (WNW) 12:16:40 145.870
AISAT 27 May 12:11:40 12:14:42 18° 90° (E) 12:17:43 437.250
PCSat 27 May 12:15:55 12:21:05 43° 316° (NW) 12:26:17 145.827
UKube-1 27 May 12:21:53 12:24:20 15° 89° (E) 12:26:47 .
ANTELSAT 27 May 12:29:31 12:31:14 12° 273° (W) 12:32:56 437.575/2403.000
DUCHIFAT 1 27 May 12:31:42 12:35:47 48° 260° (W) 12:39:53 145.980
O/OREOS (USA 219) 27 May 12:32:00 12:35:11 18° 316° (NW) 12:38:23 437.305
AO-85 27 May 12:33:58 12:37:04 16° 13° (NNE) 12:40:03 145.980
BEESAT 3 27 May 12:42:23 12:46:11 51° 124° (SE) 12:50:04 437.485
ESTCUBE 1 27 May 12:47:37 12:52:06 54° 100° (E) 12:56:33 437.505/2401.250
Oscar 11 27 May 12:50:32 12:51:48 11° 305° (NW) 12:53:06 145.826/435.025
BUGSAT 1 27 May 12:51:02 12:55:12 60° 258° (WSW) 12:59:21 437.445
50 SAT 27 May 12:52:18 12:55:54 45° 99° (E) 12:59:29 437.505
Oscar 19 27 May 13:01:58 13:06:38 35° 64° (ENE) 13:11:19 437.125/150
DANDE 27 May 13:02:03 13:07:37 53° 92° (E) 13:14:48 436.750
CUBEBUG 1 27 May 13:04:54 13:09:16 56° 101° (E) 13:13:32 437.445
DX 1 27 May 13:06:47 13:11:01 47° 100° (E) 13:15:12 434.975-435.025
CUSAT 1 27 May 13:10:06 13:16:44 78° 284° (WNW) 13:24:42 437.405
POPSAT HIP 1 27 May 13:10:49 13:13:56 20° 268° (W) 13:17:03 437.405
VELOX 1 27 May 13:11:02 13:15:28 62° 102° (ESE) 13:19:50 145.980
QB50P1 27 May 13:11:18 13:14:22 19° 269° (W) 13:17:27 145.935-145.965
HUMSAT D 27 May 13:13:24 13:16:26 20° 298° (WNW) 13:19:30 437.325/437.525
QB50P2 27 May 13:13:44 13:16:37 18° 269° (W) 13:19:31 145.880/145.840
POLYITAN 1 27 May 13:16:16 13:19:05 17° 269° (W) 13:21:55 437.675
Cosmos 2491 27 May 13:17:10 13:21:00 13° 42° (NE) 13:24:48 435.465 / 435.565
Gurwin Techsat 1B 27 May 13:22:52 13:27:10 26° 60° (ENE) 13:31:29 435.225
JAS-2 27 May 13:23:51 13:31:21 90° 238° (WSW) 13:39:19 435.910
NANOSAT C BR1 27 May 13:31:06 13:33:11 13° 272° (W) 13:35:16 145.865
SPROUT 27 May 13:33:18 13:37:25 45° 99° (E) 13:41:30 437.525
BEESAT 2 27 May 13:44:31 13:48:29 71° 311° (NW) 13:52:29 435.950
ITAMSAT 1 27 May 13:44:31 13:47:55 18° 55° (NE) 13:51:20 435.822/435.867
AISAT 27 May 13:47:12 13:51:34 58° 289° (WNW) 13:55:53 437.250
AO-7 27 May 13:49:47 13:55:49 23° 42° (NE) 14:01:53 29.400- 29.500
UKube-1 27 May 13:56:33 14:00:53 69° 287° (WNW) 14:05:10 .
TISAT 1 27 May 13:58:48 14:02:18 25° 94° (E) 14:05:46 437.305
PCSat 27 May 14:02:37 14:05:57 16° 340° (NNW) 14:09:17 145.827
AO-85 27 May 14:14:26 14:18:59 36° 37° (NE) 14:23:10 145.980
AIST 2 27 May 14:15:07 14:18:17 22° 115° (ESE) 14:21:29 435.215
BEESAT 3 27 May 14:20:45 14:24:08 26° 324° (NW) 14:27:32 437.485
ESTCUBE 1 27 May 14:25:06 14:28:35 22° 299° (WNW) 14:32:04 437.505/2401.250
50 SAT 27 May 14:26:47 14:29:21 18° 297° (WNW) 14:31:55 437.505
SWISSCUBE 27 May 14:34:10 14:36:58 15° 88° (E) 14:39:46 437.505
ITUPSAT 1 27 May 14:40:10 14:43:01 15° 89° (E) 14:45:51 437.325
Oscar 19 27 May 14:41:03 14:45:55 39° 263° (W) 14:50:48 437.125/150
CUBEBUG 1 27 May 14:42:00 14:45:11 20° 300° (WNW) 14:48:21 437.445
DX 1 27 May 14:43:32 14:46:57 23° 298° (WNW) 14:50:22 434.975-435.025
DANDE 27 May 14:45:23 14:50:53 36° 299° (WNW) 14:57:44 436.750
VELOX 1 27 May 14:48:25 14:51:31 19° 301° (WNW) 14:54:36 145.980
CUSAT 1 27 May 14:55:04 15:00:22 22° 308° (NW) 15:06:12 437.405
Gurwin Techsat 1B 27 May 15:01:33 15:06:47 58° 259° (W) 15:12:03 435.225
BEESAT 27 May 15:03:06 15:07:03 25° 93° (E) 15:10:59 436.000
SPROUT 27 May 15:09:48 15:13:07 22° 297° (WNW) 15:16:26 437.525
JAS-2 27 May 15:11:40 15:17:22 23° 275° (W) 15:23:20 435.910
Cosmos 2491 27 May 15:12:13 15:20:40 48° 70° (ENE) 15:29:01 435.465 / 435.565
YUBILEINY 27 May 15:21:30 15:26:59 19° 73° (ENE) 15:32:28 435.215
ITAMSAT 1 27 May 15:21:34 15:26:45 86° 255° (WSW) 15:31:59 435.822/435.867
BEESAT 2 27 May 15:24:22 15:27:02 17° 333° (NNW) 15:29:43 435.950
TISAT 1 27 May 15:34:13 15:38:04 36° 293° (WNW) 15:41:53 437.305
UKube-1 27 May 15:35:13 15:36:07 11° 307° (NW) 15:37:01 .
AO-7 27 May 15:39:05 15:47:19 72° 65° (ENE) 15:55:37 29.400- 29.500
PCSat 27 May 15:49:23 15:51:43 13° 6° (N) 15:54:04 145.827
AIST 2 27 May 15:52:24 15:56:28 55° 314° (NW) 16:00:34 435.215
AO-85 27 May 15:55:03 15:59:36 45° 240° (WSW) 16:03:45 145.980
BEESAT 3 27 May 16:02:22 16:03:08 10° 347° (NNW) 16:03:55 437.485
KKS-1 27 May 16:02:49 16:04:55 13° 88° (E) 16:07:00 437.445
SWISSCUBE 27 May 16:10:32 16:15:22 78° 287° (WNW) 16:20:09 437.505
MOZHAYETS 4 27 May 16:16:29 16:19:09 15° 88° (E) 16:21:49
ITUPSAT 1 27 May 16:16:36 16:21:26 77° 287° (WNW) 16:26:14 437.325
HORYU 2 27 May 16:30:28 16:34:26 34° 66° (ENE) 16:38:27 437.375
Cosmos 2504 27 May 16:32:10 16:34:15 11° 69° (ENE) 16:36:22 435.465 / 435.565
DANDE 27 May 16:36:03 16:36:35 10° 325° (NW) 16:37:06 436.750
STARS 27 May 16:38:29 16:41:08 16° 90° (E) 16:43:46 437.465
BEESAT 27 May 16:40:28 16:45:04 47° 292° (WNW) 16:49:39 436.000
BRITE-PL 27 May 16:45:50 16:48:23 13° 51° (NE) 16:50:54 437.365/2234.400
RS-15 27 May 16:46:38 16:55:01 25° 99° (E) 17:03:39 29.354- 29.394
CUTE-I 27 May 16:58:31 17:01:18 14° 52° (NE) 17:04:04 437.470
ITAMSAT 1 27 May 17:04:31 17:07:01 13° 274° (W) 17:09:33 435.822/435.867
Cosmos 2491 27 May 17:09:19 17:17:33 47° 273° (W) 17:25:43 435.465 / 435.565
GOMX 1 27 May 17:12:40 17:13:47 11° 51° (NE) 17:14:53 467.674
YUBILEINY 27 May 17:13:38 17:22:18 78° 96° (E) 17:31:01 435.215
PCSat 27 May 17:32:48 17:37:11 24° 32° (NNE) 17:41:32 145.827
AIST 2 27 May 17:33:17 17:35:50 16° 336° (NNW) 17:38:23 435.215
AO-7 27 May 17:33:38 17:40:46 31° 266° (W) 17:48:00 29.400- 29.500
KKS-1 27 May 17:37:37 17:42:05 80° 285° (WNW) 17:46:30 437.445
O/OREOS (USA 219) 27 May 17:40:45 17:40:57 10° 34° (NE) 17:41:09 437.305
CUBESAT XI-V 27 May 17:41:38 17:44:07 14° 87° (E) 17:46:35 437.345
LilacSat-2 27 May 17:42:49 17:45:24 18° 63° (ENE) 17:47:59 437.200
NOAA 15 27 May 17:44:49 17:49:46 41° 65° (ENE) 17:54:45 137.62
NOAA 18 27 May 17:47:00 17:52:00 39° 64° (ENE) 17:57:02 137.9125
Cubesat XI-IV 27 May 17:49:39 17:54:20 33° 63° (ENE) 17:59:02 437.490
SWISSCUBE 27 May 17:50:04 17:52:23 14° 306° (NW) 17:54:43 437.505
MOZHAYETS 4 27 May 17:52:14 17:56:52 75° 286° (WNW) 18:01:29
ITUPSAT 1 27 May 17:56:11 17:58:30 13° 307° (NW) 18:00:48 437.325
DOVE 4 27 May 18:00:35 18:02:49 13° 55° (NE) 18:05:01 437.250
HORYU 2 27 May 18:07:08 18:11:03 30° 264° (W) 18:14:58 437.375
STARS 27 May 18:13:36 18:17:58 66° 288° (WNW) 18:22:17 437.465
Cosmos 2504 27 May 18:18:40 18:25:44 59° 92° (E) 18:33:16 435.465 / 435.565
BRITE-PL 27 May 18:20:12 18:25:47 60° 71° (ENE) 18:31:21 437.365/2234.400
CUTE-I 27 May 18:35:11 18:40:28 73° 71° (ENE) 18:45:48 437.470
BEESAT 2 27 May 18:44:06 18:46:06 13° 21° (NNE) 18:48:06 435.950
GOMX 1 27 May 18:45:29 18:50:47 52° 70° (ENE) 18:55:56 467.674
RS-15 27 May 18:54:03 19:05:27 79° 124° (SE) 19:17:32 29.354- 29.394
AUBIESAT-1 27 May 18:54:55 18:57:30 17° 56° (NE) 18:59:59 437.475
CUTE 1.7 + AOD 2 27 May 18:59:05 18:59:53 10° 55° (NE) 19:00:41 437.475
M-CUBED/EXP-1 PRIME 27 May 19:00:55 19:04:06 23° 59° (ENE) 19:07:07 437.505
HO-68 27 May 19:01:19 19:07:15 29° 54° (NE) 19:13:11 435.675
YUBILEINY 27 May 19:12:45 19:20:05 30° 300° (WNW) 19:27:30 435.215
LilacSat-2 27 May 19:15:44 19:19:24 47° 261° (W) 19:23:06 437.200
PCSat 27 May 19:15:53 19:21:22 85° 52° (NE) 19:26:48 145.827
KKS-1 27 May 19:16:04 19:17:56 12° 305° (NW) 19:19:46 437.445
O/OREOS (USA 219) 27 May 19:17:16 19:21:35 44° 56° (ENE) 19:25:53 437.305
CUBESAT XI-V 27 May 19:17:22 19:22:08 82° 284° (WNW) 19:26:51 437.345
BEESAT 3 27 May 19:18:28 19:21:43 24° 34° (NE) 19:24:58 437.485
NOAA 15 27 May 19:24:50 19:29:37 34° 264° (W) 19:34:28 137.62
NOAA 18 27 May 19:27:39 19:32:42 37° 263° (W) 19:37:46 137.9125
Cubesat XI-IV 27 May 19:29:15 19:34:18 44° 262° (W) 19:39:24 437.490
MOZHAYETS 4 27 May 19:31:24 19:33:15 12° 306° (NW) 19:35:06
DOVE 4 27 May 19:34:33 19:39:43 70° 73° (ENE) 19:44:41 437.250
STARS 27 May 19:52:57 19:53:29 10° 307° (NW) 19:54:01 437.465
BRITE-PL 27 May 19:59:54 20:04:35 26° 270° (W) 20:09:18 437.365/2234.400
CANX-2 27 May 20:03:44 20:07:44 44° 70° (ENE) 20:11:46 2200.000
CINEMA 3 27 May 20:05:42 20:10:11 46° 70° (ENE) 20:14:29 145.822/145.860
SEEDS 27 May 20:06:42 20:10:25 32° 67° (ENE) 20:14:10 437.485
Cosmos 2504 27 May 20:13:06 20:19:37 34° 296° (WNW) 20:26:32 435.465 / 435.565
CUTE-I 27 May 20:17:24 20:21:05 19° 271° (W) 20:24:49 437.470
BEESAT 2 27 May 20:21:06 20:24:57 43° 43° (NE) 20:28:46 435.950
GOMX 1 27 May 20:24:24 20:29:04 28° 268° (W) 20:33:40 467.674
AUBIESAT-1 27 May 20:27:43 20:31:43 58° 252° (WSW) 20:35:28 437.475
CUTE 1.7 + AOD 2 27 May 20:30:45 20:34:56 73° 75° (ENE) 20:39:11 437.475
M-CUBED/EXP-1 PRIME 27 May 20:34:36 20:38:31 41° 254° (WSW) 20:42:11 437.505
STRAND 1 27 May 20:36:05 20:41:08 53° 100° (E) 20:46:11 437.568
Oscar 11 27 May 20:36:15 20:39:19 19° 61° (ENE) 20:42:22 145.826/435.025
HO-68 27 May 20:47:16 20:54:24 75° 254° (WSW) 21:01:37 435.675
ZACube-1 27 May 20:50:21 20:53:36 22° 63° (ENE) 20:56:49 437.345
COMPASS 1 27 May 20:52:14 20:56:20 66° 73° (ENE) 21:00:29 437.405
AIST 2 27 May 20:53:36 20:56:15 16° 25° (NNE) 20:58:54 435.215
AAUSAT CUBESAT 2 27 May 20:54:45 20:58:48 57° 71° (ENE) 21:02:53 437.432
CUBEBUG 2 27 May 20:55:05 20:59:15 47° 70° (ENE) 21:03:20 437.445
PRISM 27 May 20:55:21 20:57:57 16° 90° (E) 21:00:33 437.425
BEESAT 3 27 May 20:55:49 20:59:45 62° 234° (SW) 21:03:39 437.485
CUBESAT XI-V 27 May 20:56:26 20:58:46 14° 305° (NW) 21:01:06 437.345
O/OREOS (USA 219) 27 May 20:57:06 21:00:46 25° 256° (WSW) 21:04:23 437.305
AIST 1 27 May 20:59:00 21:01:42 16° 84° (E) 21:04:26
PCSat 27 May 21:00:30 21:04:04 18° 254° (WSW) 21:07:38 145.827
RS-15 27 May 21:07:47 21:19:03 50° 333° (NNW) 21:30:52 29.354- 29.394
GONETS M04 27 May 21:10:47 21:16:59 22° 76° (ENE) 21:23:11
DOVE 4 27 May 21:14:14 21:17:50 19° 270° (W) 21:21:23 437.250
UWE-3 27 May 21:23:24 21:27:38 64° 73° (ENE) 21:31:48 435.000/436.395/437.385
DELFI C3 27 May 21:24:50 21:28:08 26° 65° (ENE) 21:31:28 145.870
FUNcube-1 27 May 21:27:27 21:31:28 45° 70° (ENE) 21:35:27 145.935
CANX-2 27 May 21:40:35 21:43:49 21° 268° (W) 21:47:05 2200.000
SEEDS 27 May 21:42:28 21:46:08 29° 265° (W) 21:49:50 437.485
CINEMA 3 27 May 21:43:45 21:47:31 24° 267° (W) 21:51:11 145.822/145.860
DANDE 27 May 21:53:24 21:59:12 20° 50° (NE) 22:04:54 436.750
CUSAT 1 27 May 21:58:55 22:05:43 30° 58° (ENE) 22:11:47 437.405
BEESAT 2 27 May 21:59:15 22:02:39 27° 242° (WSW) 22:06:01 435.950
CUTE 1.7 + AOD 2 27 May 22:09:15 22:11:19 13° 272° (W) 22:13:23 437.475
Oscar 11 27 May 22:10:51 22:15:04 56° 259° (W) 22:19:20 145.826/435.025
STRAND 1 27 May 22:15:48 22:20:03 27° 299° (WNW) 22:24:18 437.568
ESTCUBE 1 27 May 22:17:26 22:19:30 13° 55° (NE) 22:21:34 437.505/2401.250
ZACube-1 27 May 22:25:38 22:29:41 44° 261° (W) 22:33:41 437.345
PRISM 27 May 22:29:31 22:33:40 60° 288° (WNW) 22:37:46 437.425
COMPASS 1 27 May 22:30:06 22:32:22 14° 272° (W) 22:34:39 437.405
AIST 2 27 May 22:31:27 22:35:34 59° 46° (NE) 22:39:40 435.215
CUBEBUG 1 27 May 22:31:42 22:33:32 12° 55° (NE) 22:35:22 437.445
AAUSAT CUBESAT 2 27 May 22:32:02 22:34:40 16° 270° (W) 22:37:19 437.432
HUMSAT D 27 May 22:32:20 22:36:20 60° 72° (ENE) 22:40:22 437.325/437.525
CUBEBUG 2 27 May 22:32:52 22:36:08 20° 268° (W) 22:39:21 437.445
DX 1 27 May 22:33:46 22:35:05 11° 54° (NE) 22:36:23 434.975-435.025
AIST 1 27 May 22:34:28 22:38:49 60° 283° (WNW) 22:43:13
VELOX 1 27 May 22:38:29 22:40:51 14° 56° (NE) 22:43:14 145.980
ANTELSAT 27 May 22:38:33 22:40:17 12° 87° (E) 22:42:01 437.575/2403.000
HO-68 27 May 22:39:16 22:43:22 16° 275° (W) 22:47:30 435.675
ISS 27 May 22:47:59 22:50:57 33° 148° (SSE) 22:53:56 145.825
Cosmos 2499 27 May 22:52:53 22:59:50 49° 89° (E) 23:07:18 435.465 / 435.565
DELFI C3 27 May 22:59:17 23:02:54 34° 263° (W) 23:06:34 145.870
UWE-3 27 May 23:02:03 23:04:32 15° 271° (W) 23:07:00 435.000/436.395/437.385
GONETS M04 27 May 23:03:45 23:12:34 87° 97° (E) 23:21:23
FUNcube-1 27 May 23:04:50 23:07:58 20° 268° (W) 23:11:05 145.935
AISAT 27 May 23:12:49 23:16:38 28° 64° (ENE) 23:20:28 437.250
UKube-1 27 May 23:20:09 23:23:34 23° 62° (ENE) 23:26:58 .
RS-15 27 May 23:23:54 23:34:59 40° 6° (N) 23:46:23 29.354- 29.394
UNISAT 6 27 May 23:32:10 23:36:14 40° 98° (E) 23:40:19 437.425
50 SAT 27 May 23:34:36 23:38:01 40° 70° (ENE) 23:41:28 437.505
DANDE 27 May 23:35:26 23:43:51 64° 73° (ENE) 23:51:42 436.750
TIGRISAT 27 May 23:39:37 23:43:44 44° 99° (E) 23:47:53 435.000
CUSAT 1 27 May 23:40:47 23:48:45 77° 262° (W) 23:55:29 437.405
ESTCUBE 1 27 May 23:51:04 23:55:35 82° 75° (ENE) 00:00:10 437.505/2401.250
CUBEBUG 1 28 May 00:04:40 00:09:06 80° 74° (ENE) 00:13:34 437.445
DX 1 28 May 00:06:07 00:10:29 72° 72° (ENE) 00:14:53 434.975-435.025
PHONESAT 2.4 28 May 00:08:54 00:10:36 14° 169° (S) 00:12:17 2401.200-2431.200
HUMSAT D 28 May 00:09:58 00:12:23 15° 271° (W) 00:14:47 437.325/437.525
AIST 2 28 May 00:10:38 00:13:43 20° 246° (WSW) 00:16:46 435.215
DUCHIFAT 1 28 May 00:12:02 00:15:05 19° 92° (E) 00:18:06 145.980
VELOX 1 28 May 00:12:13 00:16:41 88° 253° (WSW) 00:21:12 145.980
ANTELSAT 28 May 00:13:17 00:17:35 82° 287° (WNW) 00:21:56 437.575/2403.000
ISS 28 May 00:23:58 00:27:15 74° 347° (NNW) 00:30:31 145.825
BUGSAT 1 28 May 00:29:53 00:32:03 14° 89° (E) 00:34:13 437.445
SPROUT 28 May 00:30:44 00:34:58 61° 72° (ENE) 00:39:12 437.525
JAS-2 28 May 00:32:07 00:35:17 13° 77° (ENE) 00:38:21 435.910
Cosmos 2499 28 May 00:46:15 00:53:08 41° 293° (WNW) 01:00:33 435.465 / 435.565
SO-50 28 May 00:47:00 00:51:02 26° 115° (ESE) 00:55:04 436.795
AISAT 28 May 00:48:49 00:53:00 38° 262° (W) 00:57:12 437.250
POPSAT HIP 1 28 May 00:49:47 00:53:53 49° 100° (E) 00:57:57 437.405
QB50P1 28 May 00:50:09 00:54:16 50° 100° (E) 00:58:20 145.935-145.965
QB50P2 28 May 00:52:31 00:56:41 56° 101° (E) 01:00:49 145.880/145.840
TISAT 1 28 May 00:54:22 00:58:11 34° 67° (ENE) 01:02:00 437.305
POLYITAN 1 28 May 00:54:59 00:59:08 57° 101° (E) 01:03:16 437.675
UKube-1 28 May 00:55:11 00:59:22 46° 260° (W) 01:03:34 .
GONETS M04 28 May 01:03:32 01:10:38 26° 302° (WNW) 01:17:44
NANOSAT C BR1 28 May 01:08:24 01:12:37 74° 104° (ESE) 01:16:47 145.865
UNISAT 6 28 May 01:09:16 01:12:48 25° 296° (WNW) 01:16:21 437.425
50 SAT 28 May 01:09:23 01:11:56 18° 268° (W) 01:14:31 437.505
TIGRISAT 28 May 01:16:50 01:20:13 23° 297° (WNW) 01:23:36 435.000
DANDE 28 May 01:18:49 01:26:19 37° 274° (W) 01:33:23 436.750
YUBILEINY 28 May 01:23:14 01:27:16 14° 43° (NE) 01:31:16 435.215
CUSAT 1 28 May 01:24:34 01:29:27 18° 284° (WNW) 01:33:57 437.405
ESTCUBE 1 28 May 01:30:50 01:33:01 13° 273° (W) 01:35:12 437.505/2401.250
RS-15 28 May 01:38:13 01:50:21 63° 38° (NE) 02:02:36 29.354- 29.394
CUBEBUG 1 28 May 01:43:49 01:45:58 13° 272° (W) 01:48:07 437.445
SWISSCUBE 28 May 01:44:19 01:48:23 29° 63° (ENE) 01:52:29 437.505
PHONESAT 2.4 28 May 01:44:43 01:46:38 15° 186° (S) 01:48:33 2401.200-2431.200
DX 1 28 May 01:44:44 01:47:11 15° 271° (W) 01:49:38 434.975-435.025
DUCHIFAT 1 28 May 01:47:01 01:51:03 48° 290° (WNW) 01:55:04 145.980
ITUPSAT 1 28 May 01:50:36 01:54:42 30° 63° (ENE) 01:58:50 437.325
ANTELSAT 28 May 01:52:02 01:53:37 12° 304° (NW) 01:55:14 437.575/2403.000
VELOX 1 28 May 01:52:24 01:53:51 11° 274° (W) 01:55:18 145.980
ISS 28 May 02:00:39 02:03:53 61° 6° (N) 02:07:08 145.825
BUGSAT 1 28 May 02:03:52 02:07:53 63° 288° (WNW) 02:11:52 437.445
SPROUT 28 May 02:08:35 02:11:19 16° 270° (W) 02:14:04 437.525
BEESAT 28 May 02:13:25 02:17:57 46° 68° (ENE) 02:22:31 436.000
JAS-2 28 May 02:14:30 02:22:03 62° 100° (E) 02:28:49 435.910
POPSAT HIP 1 28 May 02:26:14 02:29:23 21° 298° (WNW) 02:32:30 437.405
SO-50 28 May 02:26:22 02:31:14 61° 315° (NW) 02:36:05 436.795
QB50P1 28 May 02:26:38 02:29:44 20° 298° (WNW) 02:32:50 145.935-145.965
QB50P2 28 May 02:29:11 02:32:08 19° 299° (WNW) 02:35:04 145.880/145.840
TISAT 1 28 May 02:30:14 02:33:53 28° 265° (W) 02:37:33 437.305
POLYITAN 1 28 May 02:31:41 02:34:35 18° 299° (WNW) 02:37:28 437.675
NANOSAT C BR1 28 May 02:45:26 02:47:49 15° 302° (WNW) 02:50:12 145.865
Cosmos 2499 28 May 02:48:11 02:49:09 10° 320° (NW) 02:50:07 435.465 / 435.565
